Vertical_Velocity
-0 -0 -0 -0 -0 -0 -0 -0 -0 -0 -0 -0 -0 -0 -0 -0 -0 0 0 0 0 0 0 1 1 1 1 1 1 1 1 0 0 0 0 -0 -0 -0 -0 -0 -0 -0 -0 -0 -0 -0 0 1 1 1 1 0 0 0 0 0 0 0 1 1 1 1 1 0 -0 -0 -0 -1 -1 -1 -1 -0 0 0 1 1 0 0 0 0 0 0 0 0 0 0 0 0 0 0 0 0 0 0 0 -0 -0 -0 0 -0 -0 -0 -0
-0 -0 -0 -0 -0 -0 -0 -0 -0 -1 -1 -1 -1 -1 -1 -0 -0 -0 -0 0 0 0 0 0 1 1 1 1 1 1 1 1 1 0 0 0 0 0 0 0 0 -0 -0 -0 -0 -0 0 1 1 1 1 0 0 0 0 0 0 0 1 1 1 1 1 1 0 0 -0 -0 -0 -0 -0 -0 0 0 1 1 1 1 0 1 1 1 0 0 0 0 0 0 0 0 0 0 0 0 0 0 0 0 0 0 0 0 0
-0 -0 -0 -0 -0 -0 -0 -0 -0 -0 -1 -1 -0 -0 -0 -0 -0 -0 -0 0 0 0 0 0 0 0 0 1 1 1 1 1 1 1 1 1 1 1 1 1 0 0 0 0 0 0 0 0 1 1 1 1 0 0 0 0 0 1 1 1 1 1 1 1 1 0 0 0 0 0 -0 -0 -0 -0 0 0 0 0 0 0 1 1 1 1 1 1 0 0 0 0 0 0 0 0 0 0 0 -0 0 0 0 0 0
-0 -0 -0 -0 -0 -0 -0 -0 -0 -0 -0 -0 -0 -0 -0 -0 -0 -0 -0 0 0 0 0 0 0 0 0 0 0 0 1 1 1 1 1 1 1 1 1 1 1 1 1 0 0 0 0 0 1 1 1 1 1 1 1 1 0 1 1 1 1 1 1 1 1 1 0 0 0 0 -0 -0 -0 -0 -0 -0 0 0 0 0 0 0 0 1 1 1 1 1 1 1 0 0 0 0 0 0 0 0 0 0 0 0 0
0 -0 -0 -0 -0 -0 -0 -0 -0 -0 -0 -0 -0 -0 -0 0 0 0 0 0 0 0 0 0 0 0 -0 0 0 0 0 0 0 1 1 1 1 1 1 2 2 1 1 1 1 1 1 1 1 1 1 1 2 2 2 1 1 1 1 1 1 1 1 1 1 1 1 0 0 0 0 -0 -0 -0 -0 -0 -0 -0 -0 -0 0 0 0 0 0 0 0 1 1 1 1 1 1 1 0 0 0 0 0 0 0 0 0
0 0 -0 -0 -0 -1 -1 -1 -1 -0 -0 -0 -0 -0 0 0 0 0 0 0 0 0 0 0 0 0 0 0 0 -0 0 0 0 0 0 0 1 1 1 1 1 1 1 1 1 1 1 1 1 1 1 1 2 2 2 2 2 1 1 1 1 1 1 1 1 1 1 1 0 0 0 0 0 -0 -0 -0 -0 -0 -0 -0 -0 -0 -0 -0 -0 -0 0 0 0 0 1 1 1 1 0 1 1 0 0 0 0 0 0
1 1 0 0 -0 -1 -1 -1 -1 -1 -1 -0 -0 -0 -0 0 0 0 0 0 0 0 0 0 0 0 0 0 0 0 0 0 -0 -0 0 0 0 0 1 1 1 1 1 1 1 1 1 1 0 0 0 1 1 1 2 2 2 2 1 1 1 1 1 1 1 1 1 1 1 1 0 0 0 0 0 0 -0 -0 0 0 0 0 0 0 0 0 0 0 0 0 0 0 0 0 0 0 1 1 0 0 0 0 0
1 1 1 1 0 0 -0 -1 -1 -1 -1 -1 -1 -0 -0 -0 -0 -0 0 0 0 0 0 0 0 0 0 0 0 0 0 0 0 0 0 0 0 0 0 0 0 0 0 1 1 1 1 0 0 0 0 0 0 0 1 1 1 1 1 1 1 1 1 1 1 1 1 2 1 1 1 1 1 0 0 1 1 0 1 1 0 0 1 0 0 0 0 0 0 0 0 0 0 0 0 0 0 0 0 1 1 0 0
1 1 1 1 1 1 1 0 0 -0 -0 -0 -1 -1 -1 -1 -0 -0 -0 -0 0 0 0 0 0 0 0 0 0 0 0 0 0 0 0 0 0 0 0 0 0 0 0 0 1 1 1 1 0 0 0 0 0 0 0 0 0 1 0 1 1 1 1 1 1 1 1 1 1 1 1 1 1 1 0 1 1 1 1 1 1 1 1 1 1 1 1 1 1 1 1 1 0 0 0 0 0 0 1 1 1 1 1
1 1 1 1 1 1 1 1 1 1 1 0 0 -0 -0 -1 -1 -1 -1 -1 -0 -0 0 0 0 0 0 0 1 1 0 1 0 0 0 0 1 1 1 1 1 1 1 1 1 1 1 1 1 1 1 1 0 0 0 0 0 0 0 0 0 1 1 1 1 1 1 1 1 1 1 1 1 1 1 1 1 0 0 1 1 1 1 2 2 1 1 1 1 1 1 1 1 1 1 1 1 1 1 1 1 1 1
1 0 0 0 0 0 1 1 1 1 1 1 1 1 0 0 -0 -0 -1 -1 -1 -0 -0 -0 -0 0 0 0 1 1 0 1 1 1 1 1 1 1 1 1 1 1 1 1 1 1 1 1 1 1 1 1 1 1 0 0 0 0 0 0 0 1 1 1 1 1 1 1 1 1 1 1 1 1 1 1 0 0 0 0 0 0 1 1 1 1 1 1 1 1 1 1 1 1 1 1 1 1 1 1 1 1 1
1 0 0 0 -0 -0 -0 -0 -0 -0 0 0 0 1 1 0 0 0 0 0 -0 -0 -0 -0 -0 -0 0 0 0 0 0 0 1 1 1 1 1 1 1 1 1 1 1 1 2 2 2 2 2 2 1 1 1 1 1 1 0 0 0 0 0 0 0 1 1 1 1 1 1 1 1 1 1 1 1 1 1 1 0 0 -0 -0 -0 -0 -0 0 0 1 1 1 1 1 1 1 1 1 1 1 1 1 1 1 1
0 0 0 -0 -0 -0 -1 -1 -1 -1 -0 -0 -0 0 0 0 0 0 0 1 1 0 0 0 0 0 -0 -0 0 0 0 0 0 0 1 1 1 1 1 1 1 1 1 2 2 2 2 2 2 2 2 2 2 1 1 1 1 1 1 1 1 1 1 1 1 1 1 1 1 1 1 1 1 1 1 1 1 1 1 1 0 0 -0 -0 -0 -1 -1 -1 -0 -0 0 0 1 1 1 1 1 1 1 1 1 1 1
0 0 0 -0 -0 -0 -0 -1 -1 -0 -0 -0 -0 -0 -0 -0 -0 -0 -0 0 0 0 0 0 0 0 0 0 0 0 1 1 0 0 0 1 1 1 1 1 1 1 1 2 2 2 1 2 2 2 2 2 2 2 2 2 2 2 1 1 1 1 1 1 1 1 1 1 1 1 1 1 1 1 1 1 1 1 1 1 1 1 0 0 -0 -0 -1 -1 -1 -1 -1 -1 -1 -0 -0 0 0 0 0 0 0 0 1
0 0 0 0 0 -0 -0 -0 -0 -0 -0 -0 -0 -0 -0 -0 -0 -0 -0 -0 -1 -1 -1 -1 -1 -0 -0 -0 0 1 1 1 1 1 1 1 1 1 1 1 1 1 2 2 2 2 1 1 2 2 2 2 2 2 2 2 3 2 2 2 2 2 2 2 1 1 1 1 1 1 1 1 1 1 1 1 1 1 1 1 1 1 0 0 0 0 -0 -0 -1 -1 -1 -2 -2 -1 -1 -1 -1 -1 -1 -1 -1 -1 -0
1 0 0 0 0 0 0 0 -0 -0 -0 -0 -0 -0 0 0 0 0 -0 -0 -0 -1 -1 -1 -1 -1 -1 -1 -1 -0 0 1 1 1 1 1 1 1 1 1 1 1 2 2 2 2 2 2 2 2 2 2 2 2 2 3 3 3 2 2 2 2 1 1 1 1 1 1 1 1 1 1 1 1 1 1 1 1 1 1 1 0 0 0 0 0 0 0 -0 -0 -1 -1 -1 -1 -2 -2 -2 -2 -1 -1 -1 -1 -1
1 1 1 1 1 0 0 0 0 -0 -0 -0 -0 -0 -0 0 0 0 0 0 0 0 -0 -0 -1 -1 -1 -1 -1 -1 -1 -0 0 1 1 1 1 1 1 1 1 1 1 1 2 2 2 2 2 2 2 2 2 2 2 2 2 2 2 2 1 1 1 1 1 1 1 1 1 1 1 1 0 0 0 0 0 0 0 0 0 0 0 0 0 0 0 0 0 0 -0 -0 -0 -1 -1 -1 -2 -2 -2 -2 -2 -2 -2
1 1 1 1 1 0 0 0 -0 -0 -0 -0 -0 -0 -0 -0 -0 0 0 1 1 1 1 1 1 0 0 -0 -0 -1 -1 -1 -1 -0 0 1 1 1 0 0 0 0 0 1 1 1 1 1 1 2 2 2 2 2 2 2 2 2 1 1 1 1 1 1 1 1 1 1 1 1 1 1 0 0 0 0 0 0 0 0 0 0 0 0 0 0 0 0 0 0 0 0 0 -0 -0 -0 -1 -1 -1 -2 -2 -2 -2
1 1 1 1 1 0 -0 -0 -0 -0 -0 -0 -0 -0 -0 -0 -0 -0 -0 0 1 1 1 1 1 1 1 1 0 0 -0 -1 -1 -1 -1 -1 -0 -0 -0 -0 -0 -0 -0 -0 -0 0 0 0 0 1 1 1 1 1 1 1 1 1 1 1 0 0 1 1 1 1 1 1 1 1 1 1 0 0 0 0 0 0 0 0 0 0 -0 -0 0 0 0 0 0 0 0 0 0 0 0 0 0 -0 -0 -0 -1 -1 -1
0 0 0 0 0 0 -0 -0 -1 -1 -0 -0 -0 -0 0 -0 -0 -1 -1 -0 0 1 1 1 1 1 1 1 1 0 0 0 -0 -1 -1 -1 -1 -1 -1 -1 -1 -1 -1 -1 -1 -1 -1 -1 -1 -0 -0 -0 0 0 0 0 0 0 0 0 0 -0 0 0 0 0 0 0 1 1 0 0 0 0 0 0 0 1 1 1 1 1 0 0 0 0 0 0 0 0 0 0 0 0 0 0 0 0 0 -0 -0 -0 -0
-0 -0 -0 -0 -0 -1 -1 -1 -1 -1 -1 -0 -0 -0 0 0 0 -0 -1 -1 -1 -0 0 1 1 1 1 1 1 1 1 1 0 0 -0 -0 -1 -1 -1 -1 -1 -1 -1 -1 -1 -1 -1 -1 -1 -1 -1 -1 -1 -1 -1 -1 -1 -1 -1 -1 -1 -1 -0 -0 0 0 0 0 0 0 0 0 0 0 0 0 0 0 0 0 0 0 0 0 0 0 0 0 0 0 -0 -0 -0 -0 0 0 0 0 -0 -0 -0 -0 0
-3 -2 -2 -2 -3 -3 -3 -2 -2 -1 -1 -1 -1 -1 -0 0 0 0 -0 -1 -1 -1 -0 0 1 1 1 1 1 1 1 1 0 0 0 0 -0 -0 -0 -1 -1 -1 -1 -1 -1 -1 -1 -1 -1 -1 -1 -2 -2 -1 -1 -1 -1 -1 -1 -1 -1 -1 -1 -1 -0 -0 -0 0 0 0 0 0 0 -0 -0 -0 0 0 -0 0 -0 -0 0 0 -0 -0 -0 -1 -1 -1 -1 -1 -1 -1 -1 -1 -0 -0 -0 -0 -0 -0 -0
-4 -4 -5 -5 -4 -3 -2 -1 -1 -1 -1 -1 -1 -1 -0 0 1 1 1 0 -0 -1 -1 -0 0 0 0 0 0 1 1 1 1 0 0 0 0 0 0 -0 -0 -0 -1 -1 -1 -1 -1 -1 -1 -1 -1 -1 -1 -1 -1 -1 -1 -1 -1 -2 -2 -2 -1 -1 -1 -1 -0 -0 -0 -0 -0 -0 -0 -0 -0 -0 -0 -0 -1 -0 -0 -1 -0 -1 -1 -0 -1 -1 -2 -2 -1 -2 -2 -2 -2 -2 -2 -1 -1 -1 -1 -0 -1
-4 -4 -5 -5 -4 -2 -1 -1 -1 -2 -2 -1 -1 -1 -1 0 1 1 1 0 -0 -1 -1 -1 -0 -0 -0 -0 -0 0 0 0 0 0 0 0 0 0 0 0 0 0 -0 -0 -0 -0 -0 -1 -1 -1 -1 -1 -1 -1 -1 -1 -1 -1 -1 -1 -1 -2 -2 -1 -1 -1 -1 -0 -0 -0 -0 -0 -0 -0 -0 -0 -0 -1 -1 -1 -1 -1 -1 -1 -1 -0 -0 -0 -0 0 0 0 -0 -1 -0 -1 -2 -2 -2 -2 -2 -1 -1
-2 -2 -3 -3 -3 -3 -3 -3 -3 -3 -2 -1 -2 -2 -2 -1 0 1 1 0 -0 -1 -1 -1 -1 -0 -0 -1 -0 -0 -0 -0 -0 0 0 -0 -0 -0 0 0 1 0 0 0 -0 -0 -0 -0 -0 -1 -1 -1 -1 -1 -1 -1 -1 -1 -1 -1 -1 -1 -1 -1 -1 -1 -1 -0 -0 -0 -0 -0 -0 -0 -0 -0 -1 -1 -1 -1 -1 -1 -1 -1 -0 0 0 1 1 1 0 1 2 2 2 2 1 1 0 -0 -1 -1 -2
1 -0 -1 -1 -2 -2 -3 -3 -3 -2 -2 -1 -2 -2 -2 -2 -1 -0 0 -0 -1 -2 -1 -1 -1 -1 -0 -1 -0 -0 0 -0 -0 -0 -0 -0 -0 -0 -0 0 1 1 0 0 0 0 0 -0 -0 -0 -0 -1 -1 -1 -1 -1 -1 -1 -1 -1 -1 -1 -1 -1 -1 -1 -1 -0 -0 -0 -0 -0 -0 -0 -0 -0 -1 -1 -1 -0 -1 -1 -1 -0 -0 -0 -0 -1 -1 -1 0 0 0 1 1 2 2 2 2 2 2 1 -0
1 2 3 3 2 0 -1 -1 -0 -0 -1 -1 -1 -1 -1 -1 -1 -0 0 -1 -1 -2 -2 -1 -1 -1 -1 -0 0 0 1 0 0 -0 -0 -0 -0 -0 -0 -0 0 1 0 0 0 0 0 -0 -0 0 -0 -0 -0 -0 -1 -0 -0 -0 -0 -1 -1 -1 -1 -1 -1 -1 -1 -0 -0 -0 -0 -0 -0 -0 -0 -1 -1 -1 -1 -0 -1 -1 -1 -0 -0 -1 -1 -0 0 0 0 -0 -1 -2 -1 -1 -0 1 1 2 2 2 1
0 3 5 5 4 2 1 1 1 0 -0 0 0 0 0 0 0 0 1 0 -0 -0 -1 -1 -1 -0 -0 0 0 1 1 1 0 -0 -0 -0 -0 -0 -1 -1 -0 0 0 0 0 -0 0 0 -0 -0 0 -0 -0 -0 -1 -0 -0 -0 -0 -0 -1 -1 -1 -1 -1 -0 -0 -0 -0 -0 -0 -0 -0 -0 -0 -1 -1 -1 -0 -1 -1 -1 -1 -0 0 -0 -0 -0 -0 -0 0 1 2 2 1 0 -0 -0 -0 2 3 4 4
-2 0 2 2 1 1 0 -0 -0 -0 0 1 1 1 2 2 2 1 1 2 2 2 1 1 1 1 1 1 1 1 1 1 -0 -1 -0 -0 -0 -0 -0 -1 -1 -0 0 -0 -0 -0 -0 -0 -0 0 0 0 -0 -0 -1 -1 -1 -1 -1 -1 -1 -1 -1 -1 -0 -0 -0 -0 -0 -0 -1 -1 -0 -0 -0 -1 -1 -1 -0 -1 -1 -1 -0 -0 -0 -0 -0 -1 -0 -1 -1 -1 -0 0 0 0 -0 -1 -2 -1 -0 2 4
-2 -2 -1 -1 -1 -1 -1 -1 -1 -0 2 3 3 2 3 3 3 2 2 2 2 2 2 2 2 2 2 2 1 1 1 0 -1 -1 -1 -0 -0 -0 -0 -1 -1 -1 -0 -0 -0 -0 -0 -0 -0 -0 -0 -0 -0 -0 -1 -1 -1 -1 -1 -1 -1 -1 -1 -1 -0 -0 -0 -0 -0 -0 -0 -1 -1 -1 -0 -1 -1 -1 -1 -1 -1 -1 -0 -0 -0 -0 -0 -1 -1 -1 -2 -2 -2 -2 -2 -1 -1 -1 -1 -2 -3 -3 -2
-0 0 0 -1 -1 -1 -1 -1 0 2 4 4 3 3 3 3 2 2 2 2 2 2 2 2 1 1 1 2 2 1 0 -0 -1 -2 -1 -0 0 0 0 0 -0 -0 -0 -0 -1 -0 -0 -0 -0 -0 -0 -0 -1 -1 -1 -1 -1 -1 -1 -1 -1 -1 -1 -1 -1 -1 -1 -1 -0 -0 -0 -0 -1 -1 -1 -1 -1 -1 -1 -1 -1 -1 -1 -0 -0 -1 -1 -1 -1 -1 -1 -1 -1 -2 -2 -2 -1 -1 -1 -1 -2 -2 -2
1 0 -1 -2 -2 -2 -1 1 2 3 4 3 3 2 1 2 2 1 1 1 1 1 1 1 1 1 1 1 0 0 -0 -1 -1 -2 -1 -0 -0 0 1 0 0 -0 -0 -0 -1 -1 -1 -1 -1 -1 -1 -1 -1 -1 -1 -1 -1 -1 -1 -1 -1 -1 -0 -0 -0 -0 -0 -0 -0 -0 -0 -0 -1 -1 -1 -1 -1 -1 -1 -1 -1 -1 -1 -1 -1 -1 -1 -1 -1 -1 -1 -1 -1 -1 -1 -1 -1 -2 -2 -2 -2 -2 -2
-1 -2 -3 -2 -1 1 1 2 3 3 3 2 1 0 -0 0 1 1 0 0 0 1 0 1 1 0 1 -0 -1 -1 -1 -1 -1 -1 -2 -1 -0 0 1 0 0 0 -0 -1 -1 -1 -1 -1 -1 -1 -1 -1 -1 -1 -1 -1 -1 -1 -1 -1 -0 -0 -0 -0 -0 -0 -0 -0 -0 -0 -0 -0 -0 -0 -1 -1 -1 -1 -1 -1 -1 -1 -1 -1 -1 -1 -1 -1 -1 -1 -1 -1 -1 -1 -1 -1 -1 -1 -1 -1 -1 -2 -2
-1 -1 -0 1 2 2 3 3 3 2 2 1 0 0 0 0 0 0 0 0 0 0 0 0 -0 -0 -0 -2 -2 -2 -1 -0 -0 -0 -1 -0 0 1 0 0 -0 -0 -0 -1 -1 -1 -1 -1 -1 -1 -1 -1 -1 -1 -1 -1 -1 -1 -1 -1 -0 -0 -0 -0 -0 -0 -0 -0 -0 -0 -0 -0 -0 -0 -0 -0 -0 -1 -1 -1 -1 -0 -0 -1 -1 -1 -1 -1 -1 -1 -1 -1 -1 -1 -1 -1 -1 -1 -1 -1 -1 -1 -1
1 2 2 2 2 2 2 2 1 1 0 0 -0 -0 -0 -0 0 0 0 0 0 -0 -0 -0 -1 -1 -1 -1 -2 -1 -0 -0 0 0 0 -0 -0 0 -0 -0 -0 -0 -1 -1 -1 -1 -1 -1 -1 -1 -1 -1 -1 -1 -1 -1 -1 -1 -1 -0 -0 -0 -0 -0 -0 0 0 -0 -0 -0 -0 -0 0 0 0 0 0 -0 -0 -0 -0 -0 -0 -0 -0 -0 -0 -0 -0 -0 -0 -0 -0 -1 -1 -1 -1 -1 -1 -1 -1 -1 -1
2 2 3 3 3 3 2 2 1 1 0 -0 -0 -0 -0 -0 -0 -0 -0 -0 -0 -0 -0 -0 -1 -1 -1 -1 -0 0 1 1 0 0 0 -0 -1 -1 -1 -1 -1 -1 -1 -1 -1 -1 -1 -1 -1 -1 -1 -1 -1 -1 -1 -1 -1 -1 -0 -0 -0 -0 -0 -0 -0 0 0 -0 -0 -0 0 0 0 0 0 0 0 0 0 0 0 0 0 0 0 0 0 0 0 -0 0 -0 -0 -0 -1 -1 -1 -1 -1 -1 -1 -1 -1
2 2 2 3 3 2 2 2 1 1 0 0 0 0 -0 -0 -0 -0 -0 -0 -0 -0 -0 -0 -0 -0 -1 -1 -1 -1 -1 -1 -1 -1 -1 -1 -1 -1 -1 -1 -1 -1 -2 -1 -1 -2 -2 -2 -1 -1 -1 -2 -2 -2 -2 -2 -1 -1 -1 -1 -1 -1 -1 -1 -0 -0 -0 -0 0 0 1 1 1 1 0 0 0 0 0 0 0 1 1 1 1 1 1 1 1 1 1 0 0 -0 -0 -0 -0 -0 -0 -1 -1 -1 -1
1 2 2 2 2 1 1 1 1 1 1 1 1 0 0 0 0 -0 -0 -1 -1 -1 -1 -1 -1 -1 -1 -1 -1 -2 -2 -2 -2 -2 -2 -2 -1 -1 -1 -1 -1 -2 -2 -2 -1 -2 -2 -2 -1 -1 -2 -2 -2 -2 -2 -2 -1 -1 -1 -1 -2 -1 -1 -1 -1 -1 -1 0 1 1 1 1 1 0 0 0 0 0 0 1 1 1 1 1 1 1 1 1 1 1 1 1 1 1 0 0 0 -0 0 -0 -0 -0 -0
1 1 1 1 1 0 0 0 1 1 1 1 1 0 0 0 -0 -0 -0 -1 -1 -2 -2 -2 -2 -2 -1 -1 -2 -2 -2 -2 -2 -2 -2 -2 -2 -2 -1 -1 -2 -2 -2 -2 -2 -2 -2 -2 -2 -2 -2 -2 -2 -2 -2 -1 -1 -1 -1 -2 -2 -2 -1 -1 -1 -1 -0 0 1 2 2 1 1 0 0 0 1 1 1 1 1 1 1 0 0 1 1 1 1 1 1 1 1 1 1 1 0 0 0 0 -0 -0 -0
0 0 0 0 -0 -0 -0 -0 0 0 0 0 0 0 -0 -0 -1 -1 -1 -1 -2 -2 -2 -3 -3 -4 -3 -2 -2 -2 -2 -1 -2 -2 -2 -2 -3 -3 -2 -2 -2 -2 -2 -2 -2 -2 -2 -2 -2 -2 -2 -1 -2 -2 -1 -1 -1 -1 -1 -1 -1 -1 -1 -1 -1 -0 -0 0 1 1 2 1 0 0 1 1 1 1 1 1 0 0 0 0 0 0 0 1 1 1 1 1 1 1 1 1 1 1 0 0 -0 -0 -0
-0 -0 -1 -0 -0 -0 -0 -0 -0 -0 -0 -0 -0 -0 -1 -1 -1 -1 -2 -2 -2 -2 -1 -1 -2 -4 -5 -3 -3 -3 -3 -1 -1 -2 -3 -2 -3 -3 -3 -2 -2 -1 -1 -2 -2 -2 -2 -2 -2 -2 -2 -2 -1 -2 -1 -1 -1 -1 -1 -1 -1 -1 -1 -1 -1 -0 -0 -0 0 0 1 1 0 1 1 1 1 1 1 0 0 0 0 0 0 0 0 0 0 0 0 0 0 0 0 1 1 1 0 0 0 -0 -0
-1 -1 -1 -1 -1 -1 -0 -0 -0 -0 -0 -0 -1 -1 -1 -1 -1 -1 -1 -1 -2 -1 -1 -1 -1 -2 -4 -4 -3 -3 -3 -2 -2 -2 -3 -3 -3 -3 -3 -3 -2 -1 -1 -2 -2 -3 -2 -2 -2 -3 -3 -2 -2 -2 -1 -1 -1 -1 -1 -1 -1 -0 -0 -0 -0 -0 -0 -1 -1 -0 -0 0 1 1 1 1 1 0 0 0 0 0 0 0 0 0 0 0 0 0 -0 -0 -0 -0 0 0 0 0 0 0 0 0 -0
-1 -1 -1 -1 -1 -0 -0 -0 -0 -1 -1 -1 -1 -0 -0 -0 -0 -0 -0 -1 -1 -1 -1 -0 -0 -1 -2 -3 -3 -3 -3 -3 -2 -2 -2 -3 -3 -3 -3 -3 -2 -2 -2 -2 -2 -2 -2 -3 -3 -3 -3 -3 -3 -2 -2 -1 -1 -1 -1 -1 -1 -0 -0 -0 -0 -0 -1 -1 -1 -1 -0 0 1 1 1 1 0 0 0 0 0 0 0 0 0 -0 -0 -0 -0 -0 -1 -1 -1 -1 -1 -0 -0 0 0 0 0 0 0
-1 -1 -1 -1 -1 -0 -0 -1 -1 -1 -1 -1 -0 -0 0 0 0 0 0 -0 -1 -1 -1 -0 0 -0 -1 -2 -2 -2 -2 -3 -3 -2 -2 -2 -3 -3 -3 -2 -2 -2 -2 -2 -2 -2 -2 -3 -3 -2 -2 -3 -3 -3 -2 -2 -1 -1 -1 -1 -1 -1 -1 -0 -0 -0 -1 -1 -1 -1 -0 0 1 1 1 1 0 0 0 0 0 0 -0 -0 -0 -0 -1 -1 -1 -1 -1 -1 -1 -1 -1 -1 -1 -0 -0 -0 0 0 0
-1 -1 -1 -1 -1 -1 -1 -1 -1 -1 -1 -1 -0 0 0 1 1 1 1 1 0 -0 -1 -1 0 1 0 -0 -1 -1 -1 -1 -2 -2 -2 -2 -2 -2 -2 -2 -2 -3 -3 -2 -2 -1 -2 -2 -2 -2 -2 -2 -3 -3 -3 -2 -2 -1 -1 -2 -2 -2 -2 -1 -0 -0 -0 -1 -0 -0 -0 -0 -0 -0 -0 -0 -0 -0 -0 0 -0 -0 -0 -1 -1 -1 -1 -1 -1 -2 -2 -2 -2 -2 -1 -1 -1 -1 -1 -0 -0 0 0
-1 -1 -1 -1 -1 -1 -1 -2 -2 -2 -1 -1 -0 -0 0 0 0 0 1 1 1 0 -1 -1 -1 0 1 1 0 -0 0 0 -1 -1 -2 -2 -3 -3 -3 -2 -2 -2 -3 -3 -2 -2 -2 -2 -2 -2 -2 -2 -2 -2 -2 -2 -2 -2 -2 -2 -2 -2 -2 -1 -0 -0 -0 -0 -0 0 -0 -1 -1 -2 -2 -2 -2 -1 -1 -1 -0 -0 -1 -1 -1 -1 -1 -1 -2 -2 -2 -2 -2 -2 -1 -1 -1 -1 -1 -0 -0 0 1
-1 -1 -1 -1 -1 -1 -2 -2 -2 -2 -2 -2 -1 -1 -1 -0 -0 -0 -1 -1 -0 -0 -1 -1 -2 -1 -1 0 0 0 0 0 -1 -2 -3 -2 -2 -2 -4 -4 -3 -2 -2 -3 -3 -3 -2 -2 -2 -2 -2 -2 -2 -2 -2 -3 -3 -3 -3 -2 -2 -2 -2 -2 -1 -0 -0 -0 -0 -0 -0 -1 -2 -2 -2 -2 -2 -2 -2 -1 -1 -1 -1 -1 -1 -1 -1 -1 -2 -2 -2 -2 -1 -1 -1 -1 -1 -1 -0 -0 0 1 1
-1 -1 -1 -1 -1 -2 -2 -2 -2 -2 -2 -2 -2 -2 -2 -1 -1 -1 -1 -2 -2 -2 -1 -2 -2 -3 -3 -2 -1 -0 -0 -0 -1 -2 -4 -4 -3 -1 -1 -3 -3 -3 -1 -2 -3 -4 -3 -3 -2 -2 -2 -2 -2 -2 -3 -3 -3 -4 -3 -3 -3 -2 -2 -2 -1 -1 -1 -1 -1 -1 -1 -1 -2 -2 -2 -2 -2 -2 -2 -2 -2 -1 -1 -1 -0 -1 -1 -1 -1 -2 -2 -1 -1 -0 -0 -0 -0 -0 -0 0 0 1 1
-1 -1 -1 -1 -2 -2 -2 -2 -2 -2 -2 -2 -2 -2 -2 -2 -1 -1 -1 -1 -2 -2 -2 -2 -2 -3 -4 -4 -3 -2 -1 -1 -2 -2 -2 -5 -7 -8 -5 -4 -4 -4 -4 -4 -4 -5 -4 -4 -3 -3 -3 -3 -3 -3 -3 -4 -4 -4 -3 -4 -4 -3 -2 -2 -1 -1 -2 -2 -2 -1 -1 -1 -1 -1 -2 -2 -2 -2 -2 -2 -2 -2 -2 -1 -1 -1 -1 -1 -1 -1 -1 -1 -0 -0 0 0 0 0 0 1 1 1 1
-0 -1 -1 -1 -2 -2 -2 -2 -2 -2 -2 -2 -2 -2 -2 -1 -2 -2 -2 -1 -1 -2 -2 -1 -1 -2 -3 -4 -4 -3 -1 -1 -2 -3 -3 -3 -6 -11 -14 -12 -9 -7 -5 -5 -5 -6 -6 -5 -4 -4 -4 -4 -4 -4 -4 -4 -4 -4 -3 -4 -4 -4 -3 -2 -2 -2 -2 -2 -2 -2 -1 -1 -1 -1 -1 -2 -2 -2 -2 -2 -3 -3 -3 -2 -2 -2 -1 -1 -1 -1 -1 -0 -0 0 -0 0 0 0 1 1 1 1 1
-0 -0 -1 -1 -1 -2 -2 -2 -2 -2 -2 -2 -1 -1 -2 -2 -2 -2 -2 -1 -1 -2 -2 -2 -1 -1 -1 -2 -3 -3 -2 -1 -2 -3 -5 -3 -2 -3 -6 -11 -13 -13 -10 -7 -5 -4 -6 -6 -6 -6 -6 -5 -4 -4 -4 -3 -4 -3 -3 -3 -3 -4 -3 -3 -3 -3 -3 -3 -2 -1 -1 -1 -1 -1 -1 -2 -2 -2 -2 -2 -3 -3 -3 -3 -3 -3 -3 -3 -2 -2 -1 -0 -0 -0 -0 0 0 1 1 1 1 2 2
-0 -0 -1 -1 -1 -1 -1 -1 -2 -2 -2 -2 -2 -2 -2 -2 -2 -1 -1 -1 -1 -1 -2 -3 -3 -2 -0 -1 -2 -3 -1 -1 -0 -1 -1 -3 -2 -0 0 -6 -10 -13 -16 -18 -14 -7 -3 -6 -6 -5 -6 -6 -5 -4 -3 -3 -3 -3 -3 -3 -3 -3 -3 -3 -3 -3 -4 -4 -3 -2 -2 -2 -1 -1 -2 -2 -2 -2 -2 -2 -3 -3 -3 -3 -3 -4 -4 -4 -3 -2 -1 -1 -0 -0 -0 0 0 1 1 1 2 2 2
0 0 -0 -0 -1 -1 -1 -1 -1 -1 -2 -2 -3 -2 -2 -2 -2 -1 -1 -1 -1 -1 -1 -1 -3 -4 -2 -1 -2 -3 -2 -1 0 1 1 -1 -3 -3 -1 -2 -3 -4 -6 -11 -17 -16 -4 -3 -2 -2 -3 -5 -6 -6 -4 -4 -4 -3 -3 -3 -3 -3 -3 -3 -3 -3 -4 -4 -3 -3 -3 -2 -2 -2 -2 -2 -2 -2 -2 -2 -2 -2 -3 -3 -4 -4 -4 -4 -3 -2 -2 -2 -1 -0 -0 0 1 1 1 2 2 2 2
1 0 0 -0 -0 -1 -1 -1 -1 -1 -1 -2 -2 -2 -2 -2 -2 -1 -1 -1 -1 -1 -1 -1 -1 -2 -4 -2 -2 -2 -3 -1 0 1 2 2 1 -1 -2 0 1 1 -1 -1 -6 -10 -10 -3 -4 -8 -8 -4 -6 -8 -6 -6 -6 -6 -5 -5 -4 -4 -3 -3 -3 -3 -4 -4 -3 -3 -3 -3 -2 -2 -2 -2 -2 -2 -2 -2 -2 -2 -3 -3 -3 -4 -4 -4 -3 -3 -2 -2 -1 -1 -0 0 1 1 2 2 2 2 2
1 1 0 -0 -1 -1 -1 -1 -1 -1 -1 -2 -2 -2 -2 -2 -2 -1 -1 -1 -1 -1 -1 -1 -0 -1 -3 -3 -3 -2 -3 -2 -0 1 1 4 5 4 3 -1 -3 -4 -2 -0 1 -1 -7 -6 -7 -8 -9 -3 -5 -7 -5 -6 -7 -8 -7 -6 -6 -5 -4 -4 -4 -4 -4 -3 -2 -2 -3 -3 -3 -2 -2 -2 -2 -2 -3 -3 -3 -3 -2 -2 -3 -3 -3 -3 -3 -2 -2 -2 -2 -1 -0 1 1 2 2 2 1 1 1
1 1 0 -0 -1 -1 -1 -1 -1 -1 -1 -2 -2 -2 -1 -1 -1 -1 -1 -1 -1 -1 -1 -1 -0 0 -0 -2 -3 -3 -3 -2 -0 1 1 2 4 5 6 5 3 -1 -5 -4 -4 -3 -2 -3 -10 -15 -12 1 -2 -7 -5 -4 -4 -6 -7 -6 -6 -6 -6 -6 -5 -5 -5 -4 -3 -3 -2 -2 -3 -3 -3 -2 -2 -3 -3 -3 -3 -3 -2 -2 -2 -2 -2 -2 -2 -2 -2 -2 -2 -2 -1 0 1 1 1 1 1 1 1
1 0 0 -0 -1 -1 -1 -1 -1 -1 -1 -1 -1 -1 -1 -1 -1 -1 -0 -0 -0 -0 -1 -1 -1 -0 1 -1 -2 -3 -3 -3 -1 1 2 0 1 3 5 6 7 8 7 3 -2 -6 -7 1 0 -9 -22 -6 -1 -3 -9 -5 -3 -3 -5 -5 -6 -6 -6 -7 -7 -7 -7 -7 -6 -5 -4 -3 -3 -4 -4 -3 -3 -3 -3 -3 -3 -3 -2 -2 -2 -2 -2 -1 -0 -0 -1 -1 -2 -2 -1 -1 -0 0 1 1 1 1 1
0 0 -0 -0 -1 -1 -1 -1 -1 -1 -1 -1 -1 -1 -0 -0 -0 -1 -1 -0 -0 -0 -0 -0 -0 -0 0 0 -1 -2 -2 -3 -2 -1 1 1 1 1 2 4 5 6 6 6 4 1 -4 -1 3 1 -15 -19 -10 1 1 -6 -6 -4 -2 -3 -3 -4 -5 -6 -6 -6 -7 -7 -8 -8 -7 -5 -4 -4 -5 -4 -4 -4 -4 -4 -3 -3 -2 -2 -1 -1 -1 -0 0 0 -0 -0 -1 -2 -2 -1 -1 -0 0 1 1 1 1
-0 -0 -1 -1 -1 -1 -1 -0 -0 -0 -1 -1 -1 -0 -0 -0 -0 -0 -0 -0 -0 -0 -0 -0 0 0 -0 -0 -1 -1 -2 -2 -2 -2 -3 -2 -1 0 1 1 2 4 5 6 7 8 8 4 1 -0 1 -13 -21 -17 6 1 -4 -7 -5 -3 -2 -2 -3 -4 -4 -5 -5 -6 -7 -8 -9 -8 -6 -5 -6 -6 -6 -6 -6 -5 -4 -4 -3 -2 -2 -1 -1 -0 0 0 0 -0 -1 -1 -2 -1 -1 -1 -1 -1 -0 -0 -0
-1 -1 -1 -1 -1 -1 -1 -0 -0 -0 -0 -0 -0 -0 -0 -0 0 0 0 1 1 0 0 -0 0 1 1 0 -0 -1 -2 -3 -2 -1 -2 -4 -4 -2 1 -0 -1 0 2 3 5 7 8 8 6 5 7 3 -9 -20 -23 -5 0 -2 -6 -4 -3 -2 -2 -2 -2 -3 -4 -4 -4 -5 -6 -7 -7 -6 -6 -7 -7 -8 -8 -8 -7 -5 -4 -3 -2 -2 -2 -1 -1 -1 -0 -0 -1 -1 -1 -1 -1 -1 -1 -1 -1 -1 -1
-1 -1 -1 -1 -0 -0 -0 -0 0 0 0 0 0 0 0 0 0 0 0 1 1 1 1 1 1 1 2 1 1 0 -1 -2 -2 -1 0 -1 -4 -4 -0 -0 -1 -2 -1 -0 1 2 3 4 6 8 8 7 4 -4 -17 -17 -9 -1 -4 -1 -1 -2 -3 -2 -2 -2 -4 -4 -3 -3 -4 -6 -6 -6 -6 -7 -8 -8 -9 -10 -9 -7 -5 -5 -4 -3 -3 -3 -3 -2 -2 -2 -2 -1 -1 -1 -1 -1 -1 -1 -1 -1 -1
Height
1567 1567 1567 1567 1567 1567 1567 1567 1567 1566 1566 1566 1566 1566 1566 1566 1566 1566 1565 1565 1565 1565 1565 1565 1564 1564 1564 1564 1564 1564 1563 1563 1563 1563 1563 1562 1562 1562 1562 1562 1562 1562 1562 1562 1562 1562 1561 1561 1561 1561 1560 1560 1560 1559 1559 1559 1559 1559 1559 1559 1559 1558 1558 1558 1558 1558 1558 1557 1557 1556 1556 1555 1555 1555 1554 1554 1554 1554 1554 1553 1553 1553 1553 1552 1552 1552 1552 1552 1551 1551 1551 1550 1550 1550 1550 1550 1549 1549 1549 1549 1549 1549 1549
1567 1567 1567 1567 1567 1567 1567 1567 1567 1567 1567 1567 1567 1567 1566 1566 1566 1566 1566 1566 1566 1565 1565 1565 1565 1565 1565 1564 1564 1564 1564 1564 1563 1563 1563 1563 1563 1563 1562 1562 1562 1562 1562 1562 1562 1562 1562 1561 1561 1561 1561 1561 1560 1560 1560 1559 1559 1559 1559 1559 1559 1559 1558 1558 1558 1558 1558 1557 1557 1557 1556 1556 1555 1555 1555 1555 1554 1554 1554 1554 1553 1553 1553 1552 1552 1552 1552 1551 1551 1551 1551 1551 1550 1550 1550 1550 1549 1549 1549 1549 1549 1549 1549
1568 1568 1568 1568 1568 1568 1568 1568 1568 1567 1567 1567 1567 1567 1567 1567 1567 1567 1566 1566 1566 1566 1566 1566 1565 1565 1565 1565 1565 1564 1564 1564 1564 1564 1564 1563 1563 1563 1563 1563 1563 1562 1562 1562 1562 1562 1562 1562 1561 1561 1561 1561 1560 1560 1560 1560 1559 1559 1559 1559 1559 1559 1559 1559 1558 1558 1558 1558 1557 1557 1556 1556 1556 1555 1555 1555 1555 1554 1554 1554 1553 1553 1553 1553 1552 1552 1552 1551 1551 1551 1551 1551 1550 1550 1550 1550 1549 1549 1549 1549 1549 1549 1549
1568 1568 1568 1568 1568 1568 1568 1568 1568 1568 1568 1568 1568 1568 1568 1567 1567 1567 1567 1567 1567 1567 1566 1566 1566 1566 1565 1565 1565 1565 1565 1564 1564 1564 1564 1564 1564 1564 1563 1563 1563 1563 1563 1562 1562 1562 1562 1562 1562 1561 1561 1561 1561 1560 1560 1560 1560 1559 1559 1559 1559 1559 1559 1559 1558 1558 1558 1558 1557 1557 1557 1556 1556 1555 1555 1555 1555 1554 1554 1554 1554 1553 1553 1553 1553 1552 1552 1552 1551 1551 1551 1551 1550 1550 1550 1550 1550 1549 1549 1549 1549 1549 1549
1569 1569 1569 1569 1569 1569 1568 1568 1568 1568 1568 1568 1568 1568 1568 1568 1568 1568 1568 1567 1567 1567 1567 1567 1566 1566 1566 1566 1565 1565 1565 1565 1565 1564 1564 1564 1564 1564 1564 1564 1564 1563 1563 1563 1563 1562 1562 1562 1562 1561 1561 1561 1561 1561 1560 1560 1560 1560 1559 1559 1559 1559 1559 1559 1559 1558 1558 1558 1557 1557 1557 1556 1556 1556 1555 1555 1555 1555 1554 1554 1554 1554 1553 1553 1553 1552 1552 1552 1552 1551 1551 1551 1551 1550 1550 1550 1550 1549 1549 1549 1549 1549 1549
1569 1569 1569 1569 1569 1569 1569 1569 1569 1569 1569 1569 1569 1569 1568 1568 1568 1568 1568 1568 1568 1567 1567 1567 1567 1567 1566 1566 1566 1566 1565 1565 1565 1565 1565 1564 1564 1564 1564 1564 1564 1564 1563 1563 1563 1563 1562 1562 1562 1562 1561 1561 1561 1561 1560 1560 1560 1560 1559 1559 1559 1559 1559 1559 1559 1558 1558 1558 1557 1557 1557 1556 1556 1556 1555 1555 1555 1554 1554 1554 1554 1554 1554 1553 1553 1553 1552 1552 1552 1552 1551 1551 1551 1551 1550 1550 1550 1550 1549 1549 1549 1549 1549
1570 1569 1569 1569 1569 1569 1569 1569 1569 1569 1569 1569 1569 1569 1569 1569 1569 1569 1568 1568 1568 1568 1568 1567 1567 1567 1567 1567 1566 1566 1566 1566 1565 1565 1565 1565 1564 1564 1564 1564 1564 1564 1564 1563 1563 1563 1563 1562 1562 1562 1561 1561 1561 1561 1560 1560 1560 1560 1559 1559 1559 1559 1559 1559 1559 1558 1558 1558 1557 1557 1557 1556 1556 1556 1555 1555 1555 1554 1554 1554 1554 1554 1553 1553 1553 1553 1552 1552 1552 1552 1551 1551 1551 1551 1550 1550 1550 1550 1550 1549 1549 1549 1549
1570 1570 1570 1570 1570 1570 1570 1570 1569 1569 1569 1569 1569 1569 1569 1569 1569 1569 1569 1569 1568 1568 1568 1568 1568 1567 1567 1567 1567 1566 1566 1566 1566 1565 1565 1565 1565 1564 1564 1564 1564 1564 1564 1563 1563 1563 1563 1562 1562 1562 1561 1561 1561 1561 1561 1560 1560 1560 1559 1559 1559 1559 1559 1559 1559 1559 1558 1558 1558 1557 1557 1556 1556 1556 1555 1555 1555 1555 1554 1554 1554 1554 1554 1553 1553 1553 1552 1552 1552 1552 1552 1551 1551 1551 1551 1550 1550 1550 1550 1549 1549 1549 1549
1570 1570 1570 1570 1570 1570 1570 1570 1570 1570 1570 1570 1570 1570 1569 1569 1569 1569 1569 1569 1569 1569 1568 1568 1568 1568 1567 1567 1567 1567 1566 1566 1566 1566 1565 1565 1565 1565 1564 1564 1564 1564 1564 1563 1563 1563 1563 1562 1562 1562 1561 1561 1561 1561 1561 1560 1560 1560 1560 1559 1559 1559 1559 1559 1559 1559 1558 1558 1558 1558 1557 1557 1556 1556 1556 1555 1555 1555 1555 1554 1554 1554 1554 1554 1553 1553 1553 1552 1552 1552 1552 1551 1551 1551 1551 1550 1550 1550 1550 1549 1549 1549 1549
1571 1571 1571 1570 1570 1570 1570 1570 1570 1570 1570 1570 1570 1570 1570 1570 1570 1569 1569 1569 1569 1569 1569 1568 1568 1568 1568 1567 1567 1567 1567 1566 1566 1566 1566 1565 1565 1565 1565 1564 1564 1564 1564 1563 1563 1563 1563 1562 1562 1562 1561 1561 1561 1561 1560 1560 1560 1560 1559 1559 1559 1559 1559 1559 1559 1558 1558 1558 1558 1557 1557 1557 1556 1556 1556 1555 1555 1555 1555 1555 1554 1554 1554 1554 1554 1553 1553 1553 1552 1552 1552 1551 1551 1551 1550 1550 1550 1550 1549 1549 1549 1549 1549
1571 1571 1571 1571 1571 1571 1570 1570 1570 1570 1570 1570 1570 1570 1570 1570 1570 1570 1570 1569 1569 1569 1569 1569 1568 1568 1568 1568 1567 1567 1567 1567 1566 1566 1566 1566 1565 1565 1565 1564 1564 1564 1564 1563 1563 1563 1563 1562 1562 1562 1561 1561 1561 1560 1560 1560 1560 1559 1559 1559 1559 1559 1559 1559 1558 1558 1558 1558 1557 1557 1557 1556 1556 1556 1555 1555 1555 1555 1554 1554 1554 1554 1554 1553 1553 1553 1553 1552 1552 1552 1552 1551 1551 1551 1550 1550 1550 1549 1549 1549 1549 1549 1549
1571 1571 1571 1571 1571 1571 1571 1570 1570 1570 1570 1570 1570 1570 1570 1570 1570 1570 1570 1570 1569 1569 1569 1569 1569 1568 1568 1568 1568 1567 1567 1567 1566 1566 1566 1566 1565 1565 1565 1564 1564 1564 1564 1563 1563 1563 1563 1562 1562 1562 1561 1561 1561 1560 1560 1560 1559 1559 1559 1559 1559 1558 1558 1558 1558 1558 1557 1557 1557 1557 1556 1556 1556 1555 1555 1555 1554 1554 1554 1554 1554 1553 1553 1553 1553 1552 1552 1552 1552 1551 1551 1551 1551 1550 1550 1550 1549 1549 1549 1549 1549 1548 1548
1571 1571 1571 1571 1571 1571 1571 1571 1571 1570 1570 1570 1570 1570 1570 1570 1570 1570 1570 1570 1569 1569 1569 1569 1569 1569 1568 1568 1568 1568 1567 1567 1566 1566 1566 1565 1565 1565 1565 1564 1564 1564 1564 1563 1563 1563 1562 1562 1562 1561 1561 1561 1560 1560 1560 1559 1559 1559 1559 1559 1558 1558 1558 1557 1557 1557 1557 1556 1556 1556 1556 1555 1555 1555 1554 1554 1554 1554 1553 1553 1553 1553 1552 1552 1552 1551 1551 1551 1551 1551 1550 1550 1550 1550 1549 1549 1549 1549 1549 1548 1548 1548 1548
1571 1571 1571 1571 1571 1571 1571 1571 1571 1570 1570 1570 1570 1570 1570 1570 1570 1569 1569 1569 1569 1569 1569 1569 1569 1569 1568 1568 1568 1568 1567 1567 1567 1566 1566 1565 1565 1565 1564 1564 1564 1564 1563 1563 1563 1562 1562 1562 1561 1561 1561 1561 1560 1560 1560 1559 1559 1559 1558 1558 1558 1558 1557 1557 1556 1556 1556 1556 1555 1555 1555 1554 1554 1554 1554 1553 1553 1553 1553 1552 1552 1552 1552 1551 1551 1551 1550 1550 1550 1550 1549 1549 1549 1549 1549 1549 1548 1548 1548 1548 1547 1547 1547
1571 1571 1571 1571 1571 1571 1571 1571 1571 1570 1570 1570 1570 1570 1570 1570 1569 1569 1569 1569 1569 1569 1569 1568 1568 1568 1568 1568 1568 1567 1567 1567 1566 1566 1566 1565 1565 1564 1564 1564 1564 1563 1563 1563 1562 1562 1562 1561 1561 1561 1560 1560 1560 1559 1559 1559 1559 1558 1558 1558 1557 1557 1557 1556 1556 1555 1555 1555 1554 1554 1554 1554 1553 1553 1553 1553 1552 1552 1552 1551 1551 1551 1551 1550 1550 1550 1550 1549 1549 1549 1549 1549 1548 1548 1548 1547 1547 1547 1547 1547 1546 1546 1546
1571 1571 1571 1571 1571 1571 1571 1571 1571 1570 1570 1570 1570 1570 1570 1570 1569 1569 1569 1569 1568 1568 1568 1568 1568 1567 1567 1567 1567 1567 1566 1566 1566 1566 1565 1565 1564 1564 1564 1564 1563 1563 1562 1562 1562 1561 1561 1561 1560 1560 1560 1559 1559 1559 1559 1558 1558 1558 1557 1557 1556 1556 1556 1555 1555 1554 1554 1554 1554 1553 1553 1553 1552 1552 1552 1552 1551 1551 1551 1550 1550 1550 1550 1549 1549 1549 1549 1549 1549 1548 1548 1548 1548 1547 1547 1547 1546 1546 1546 1546 1545 1545 1545
1572 1571 1571 1571 1571 1571 1571 1571 1571 1570 1570 1570 1570 1570 1570 1570 1569 1569 1569 1569 1568 1568 1568 1567 1567 1567 1566 1566 1566 1565 1565 1565 1565 1565 1565 1564 1564 1564 1563 1563 1563 1562 1562 1561 1561 1561 1560 1560 1560 1559 1559 1559 1559 1558 1558 1557 1557 1557 1556 1556 1555 1555 1554 1554 1554 1554 1553 1553 1553 1553 1552 1552 1551 1551 1551 1550 1550 1550 1550 1549 1549 1549 1549 1549 1548 1548 1548 1548 1548 1547 1547 1547 1547 1546 1546 1546 1546 1545 1545 1545 1545 1544 1544
1572 1571 1571 1571 1571 1571 1571 1571 1571 1570 1570 1570 1570 1570 1570 1569 1569 1569 1569 1569 1568 1568 1568 1567 1567 1566 1566 1566 1565 1565 1564 1564 1564 1564 1564 1563 1563 1563 1562 1562 1562 1561 1561 1560 1560 1560 1559 1559 1559 1559 1558 1558 1558 1557 1557 1556 1556 1555 1555 1554 1554 1554 1554 1553 1553 1553 1552 1552 1552 1551 1551 1551 1550 1550 1550 1549 1549 1549 1549 1549 1548 1548 1548 1547 1547 1547 1547 1547 1546 1546 1546 1546 1546 1545 1545 1545 1545 1545 1544 1544 1544 1544 1544
1572 1571 1571 1571 1571 1571 1571 1571 1571 1570 1570 1570 1570 1570 1569 1569 1569 1569 1569 1569 1568 1568 1567 1567 1567 1566 1566 1565 1565 1564 1564 1564 1563 1563 1562 1562 1562 1562 1561 1561 1560 1560 1560 1559 1559 1559 1558 1558 1558 1557 1557 1557 1556 1556 1555 1555 1555 1554 1554 1554 1553 1553 1552 1552 1552 1551 1551 1551 1550 1550 1550 1549 1549 1549 1549 1549 1548 1548 1548 1548 1547 1547 1547 1546 1546 1546 1546 1545 1545 1545 1545 1545 1544 1544 1544 1544 1544 1544 1544 1544 1544 1543 1543
1572 1572 1571 1571 1571 1571 1571 1571 1571 1570 1570 1570 1570 1569 1569 1569 1569 1569 1568 1568 1568 1567 1567 1567 1566 1566 1565 1565 1564 1564 1564 1563 1562 1562 1561 1561 1561 1560 1560 1560 1559 1559 1559 1558 1558 1558 1557 1557 1556 1556 1556 1555 1555 1554 1554 1554 1553 1553 1553 1552 1552 1551 1551 1551 1550 1550 1550 1550 1549 1549 1549 1549 1548 1548 1548 1547 1547 1547 1547 1546 1546 1546 1546 1545 1545 1545 1544 1544 1544 1544 1544 1544 1543 1543 1543 1543 1543 1543 1543 1543 1543 1543 1542
1572 1572 1571 1571 1571 1571 1571 1571 1570 1570 1570 1570 1569 1569 1569 1569 1568 1568 1568 1567 1567 1567 1566 1566 1566 1565 1565 1564 1564 1563 1563 1562 1562 1561 1561 1560 1560 1559 1559 1559 1558 1558 1558 1557 1557 1556 1556 1555 1555 1554 1554 1554 1554 1553 1553 1553 1552 1552 1551 1551 1550 1550 1550 1549 1549 1549 1549 1549 1548 1548 1548 1547 1547 1547 1546 1546 1546 1546 1545 1545 1545 1545 1545 1544 1544 1544 1544 1543 1543 1543 1543 1543 1542 1542 1542 1542 1542 1542 1542 1542 1542 1541 1541
1572 1571 1571 1571 1571 1571 1570 1570 1570 1570 1570 1569 1569 1569 1568 1568 1567 1567 1567 1566 1566 1566 1566 1565 1565 1565 1564 1564 1563 1563 1562 1562 1561 1560 1560 1560 1559 1559 1558 1558 1558 1557 1557 1556 1556 1555 1555 1554 1554 1554 1553 1553 1552 1552 1552 1551 1551 1550 1550 1549 1549 1549 1548 1548 1548 1548 1547 1547 1547 1547 1546 1546 1545 1545 1545 1545 1544 1544 1544 1544 1544 1544 1544 1543 1543 1543 1543 1542 1542 1542 1542 1542 1541 1541 1541 1541 1541 1541 1540 1540 1540 1540 1540
1571 1571 1571 1571 1570 1570 1570 1570 1569 1569 1569 1569 1568 1568 1568 1567 1567 1566 1566 1566 1565 1565 1565 1564 1564 1564 1564 1563 1562 1562 1561 1561 1560 1560 1559 1559 1559 1558 1558 1557 1557 1556 1556 1555 1555 1554 1554 1553 1553 1552 1552 1551 1551 1550 1550 1550 1549 1549 1549 1548 1548 1547 1547 1547 1546 1546 1546 1546 1545 1545 1545 1544 1544 1544 1544 1543 1543 1543 1543 1543 1543 1542 1542 1542 1542 1542 1542 1542 1541 1541 1541 1541 1540 1540 1540 1540 1539 1539 1539 1539 1539 1539 1539
1570 1570 1570 1570 1570 1570 1569 1569 1569 1569 1569 1568 1568 1567 1567 1567 1566 1566 1565 1565 1564 1564 1564 1564 1563 1563 1562 1562 1561 1561 1560 1560 1560 1559 1559 1558 1558 1557 1557 1556 1556 1555 1555 1554 1554 1553 1553 1552 1552 1551 1551 1550 1550 1549 1549 1549 1548 1548 1547 1547 1546 1546 1545 1545 1545 1545 1544 1544 1544 1544 1544 1543 1543 1543 1542 1542 1542 1542 1541 1541 1541 1541 1541 1541 1541 1541 1541 1541 1541 1541 1541 1540 1540 1540 1539 1539 1539 1539 1538 1538 1538 1538 1538
1570 1570 1570 1570 1569 1569 1569 1569 1569 1568 1568 1568 1567 1567 1566 1566 1566 1565 1565 1564 1564 1564 1563 1563 1562 1562 1561 1561 1560 1560 1560 1559 1559 1559 1558 1557 1557 1556 1556 1555 1555 1554 1554 1553 1553 1552 1552 1551 1551 1550 1549 1549 1549 1548 1548 1547 1547 1546 1546 1545 1545 1544 1544 1544 1544 1543 1543 1543 1543 1542 1542 1542 1541 1541 1541 1541 1540 1540 1540 1540 1540 1540 1540 1540 1540 1540 1540 1540 1540 1540 1540 1539 1539 1539 1539 1539 1538 1538 1537 1537 1537 1537 1537
1569 1569 1569 1569 1569 1569 1569 1569 1568 1568 1567 1567 1566 1566 1566 1565 1565 1565 1564 1564 1563 1563 1562 1562 1561 1561 1561 1560 1560 1559 1559 1559 1558 1558 1557 1556 1556 1555 1555 1554 1554 1554 1553 1552 1552 1551 1551 1550 1549 1549 1548 1548 1547 1547 1546 1546 1545 1545 1544 1544 1544 1543 1543 1542 1542 1542 1541 1541 1541 1541 1540 1540 1540 1539 1539 1539 1539 1539 1539 1539 1539 1539 1539 1539 1538 1538 1539 1539 1539 1539 1538 1538 1538 1538 1538 1538 1538 1537 1537 1537 1536 1536 1536
1569 1569 1569 1569 1569 1568 1568 1568 1567 1567 1566 1566 1566 1565 1565 1565 1564 1564 1564 1564 1563 1562 1562 1561 1561 1560 1560 1559 1559 1559 1559 1558 1558 1557 1556 1556 1555 1554 1554 1554 1553 1553 1552 1551 1551 1550 1549 1549 1548 1548 1547 1546 1546 1545 1545 1544 1544 1544 1543 1543 1542 1542 1541 1541 1540 1540 1540 1539 1539 1539 1539 1539 1538 1538 1538 1538 1537 1537 1537 1537 1537 1537 1537 1537 1537 1537 1537 1537 1537 1537 1537 1537 1536 1536 1536 1536 1536 1536 1536 1536 1536 1535 1535
1568 1568 1568 1568 1568 1568 1567 1567 1567 1566 1566 1566 1565 1565 1565 1564 1564 1564 1564 1563 1563 1562 1561 1561 1560 1560 1559 1559 1559 1558 1558 1557 1557 1556 1555 1555 1554 1554 1553 1552 1552 1552 1551 1550 1550 1549 1548 1548 1547 1546 1546 1545 1544 1544 1543 1543 1543 1542 1542 1541 1540 1540 1540 1539 1539 1539 1538 1538 1538 1537 1537 1537 1536 1536 1536 1536 1536 1536 1536 1536 1535 1536 1536 1535 1535 1535 1535 1535 1535 1535 1535 1535 1535 1535 1534 1534 1534 1534 1534 1534 1534 1534 1534
1568 1568 1568 1568 1567 1567 1567 1566 1566 1566 1566 1565 1565 1565 1564 1564 1564 1564 1563 1563 1562 1562 1561 1561 1560 1560 1559 1559 1558 1558 1557 1557 1556 1555 1554 1554 1553 1553 1552 1551 1551 1550 1550 1549 1549 1548 1547 1547 1546 1545 1545 1544 1544 1543 1542 1541 1541 1540 1540 1539 1539 1539 1538 1538 1538 1537 1537 1536 1536 1536 1535 1535 1535 1534 1534 1534 1534 1534 1534 1534 1534 1534 1534 1534 1534 1534 1534 1533 1533 1533 1533 1533 1533 1533 1533 1533 1533 1533 1533 1532 1532 1532 1532
1567 1567 1567 1567 1567 1567 1566 1566 1566 1566 1565 1565 1565 1564 1564 1564 1564 1563 1563 1562 1562 1561 1561 1560 1560 1559 1559 1558 1558 1557 1556 1555 1555 1554 1553 1553 1552 1552 1551 1550 1550 1549 1549 1548 1547 1547 1546 1545 1545 1544 1544 1543 1542 1541 1541 1540 1539 1539 1539 1538 1538 1537 1537 1537 1536 1536 1535 1535 1534 1534 1534 1533 1533 1533 1533 1532 1532 1532 1532 1532 1532 1532 1532 1532 1532 1532 1532 1531 1531 1531 1531 1531 1531 1530 1530 1530 1530 1530 1530 1530 1530 1530 1530
1567 1567 1567 1567 1567 1566 1566 1566 1565 1565 1565 1565 1564 1564 1564 1564 1563 1563 1562 1562 1561 1561 1560 1559 1559 1559 1558 1557 1557 1556 1555 1554 1554 1553 1552 1552 1551 1551 1550 1549 1549 1548 1548 1547 1546 1545 1545 1544 1544 1543 1542 1541 1541 1540 1539 1539 1538 1538 1537 1537 1537 1536 1536 1535 1535 1534 1534 1534 1533 1533 1532 1532 1531 1531 1531 1531 1530 1530 1530 1530 1530 1530 1530 1530 1530 1530 1529 1529 1529 1529 1529 1529 1529 1529 1529 1528 1528 1528 1528 1528 1528 1528 1528
1567 1566 1566 1566 1566 1566 1565 1565 1565 1565 1565 1564 1564 1564 1563 1563 1562 1562 1561 1561 1560 1560 1559 1559 1558 1557 1557 1556 1555 1555 1554 1553 1552 1552 1551 1551 1550 1550 1549 1549 1548 1547 1546 1546 1545 1544 1544 1543 1542 1541 1541 1540 1539 1539 1538 1538 1537 1536 1536 1536 1535 1535 1534 1534 1534 1533 1533 1532 1532 1531 1531 1530 1530 1529 1529 1529 1529 1529 1529 1528 1528 1528 1528 1528 1528 1528 1528 1527 1527 1527 1527 1527 1527 1526 1526 1526 1526 1526 1526 1526 1526 1526 1526
1566 1566 1565 1565 1565 1565 1565 1565 1565 1564 1564 1564 1563 1563 1562 1562 1561 1561 1560 1560 1559 1559 1558 1558 1557 1556 1556 1555 1554 1554 1553 1552 1551 1551 1550 1550 1549 1549 1548 1547 1547 1546 1545 1544 1544 1543 1542 1541 1541 1540 1539 1539 1538 1538 1537 1536 1536 1535 1535 1534 1534 1534 1533 1533 1532 1532 1531 1531 1530 1530 1529 1529 1529 1528 1528 1527 1527 1527 1527 1527 1526 1526 1526 1526 1526 1526 1526 1525 1525 1525 1525 1525 1524 1524 1524 1524 1524 1524 1524 1524 1524 1524 1523
1565 1565 1565 1565 1565 1565 1565 1564 1564 1564 1564 1563 1562 1562 1561 1561 1560 1560 1559 1559 1559 1558 1557 1557 1556 1555 1555 1554 1553 1553 1552 1551 1551 1550 1549 1549 1548 1548 1547 1546 1545 1545 1544 1543 1542 1542 1541 1540 1539 1539 1538 1538 1537 1536 1536 1535 1534 1534 1534 1533 1533 1532 1532 1531 1531 1530 1530 1529 1529 1529 1528 1528 1527 1527 1526 1526 1525 1525 1525 1525 1525 1524 1524 1524 1524 1524 1524 1524 1524 1524 1523 1523 1523 1523 1523 1522 1522 1522 1522 1522 1521 1521 1521
1565 1565 1565 1565 1565 1564 1564 1564 1564 1563 1563 1562 1562 1561 1561 1560 1560 1559 1559 1558 1558 1557 1557 1556 1555 1554 1554 1553 1553 1552 1551 1551 1550 1549 1549 1548 1547 1547 1546 1545 1544 1544 1543 1542 1541 1540 1540 1539 1539 1538 1537 1536 1536 1535 1534 1534 1534 1533 1532 1532 1532 1531 1530 1530 1529 1529 1529 1528 1527 1527 1526 1526 1525 1525 1525 1524 1524 1524 1524 1523 1523 1523 1523 1523 1523 1522 1522 1522 1522 1522 1522 1522 1521 1521 1521 1521 1520 1520 1520 1520 1520 1519 1519
1565 1565 1565 1565 1564 1564 1564 1564 1563 1563 1562 1562 1561 1560 1560 1559 1559 1559 1558 1558 1557 1556 1556 1555 1554 1554 1553 1552 1552 1551 1551 1550 1549 1548 1548 1547 1546 1545 1545 1544 1543 1542 1541 1541 1540 1539 1539 1538 1537 1537 1536 1535 1534 1534 1534 1533 1532 1532 1531 1531 1530 1529 1529 1529 1528 1528 1527 1527 1526 1525 1525 1524 1524 1524 1524 1523 1523 1522 1522 1522 1522 1522 1521 1521 1521 1521 1521 1521 1521 1521 1520 1520 1520 1520 1519 1519 1519 1519 1519 1518 1518 1518 1518
1565 1565 1565 1565 1564 1564 1564 1563 1563 1562 1562 1561 1560 1560 1559 1559 1559 1558 1557 1557 1556 1555 1555 1554 1554 1553 1552 1551 1551 1550 1549 1549 1548 1547 1546 1546 1545 1544 1544 1543 1542 1541 1540 1539 1539 1538 1537 1537 1536 1535 1535 1534 1533 1533 1532 1532 1531 1531 1530 1529 1529 1528 1528 1527 1527 1526 1526 1525 1525 1524 1524 1523 1523 1523 1522 1522 1521 1521 1521 1521 1521 1521 1521 1520 1520 1520 1520 1520 1520 1519 1519 1519 1519 1519 1518 1518 1518 1518 1517 1517 1517 1516 1516
1565 1565 1565 1564 1564 1564 1563 1563 1562 1562 1561 1561 1560 1559 1559 1558 1558 1557 1556 1556 1555 1554 1554 1553 1553 1552 1551 1550 1550 1549 1548 1548 1547 1546 1545 1544 1544 1543 1542 1542 1541 1540 1539 1539 1538 1537 1536 1535 1535 1534 1534 1533 1532 1531 1531 1530 1530 1529 1529 1528 1527 1527 1526 1525 1525 1524 1524 1524 1523 1523 1523 1522 1522 1521 1521 1521 1520 1520 1520 1520 1520 1520 1520 1520 1519 1519 1519 1519 1519 1519 1518 1518 1518 1518 1517 1517 1517 1516 1516 1515 1515 1515 1514
1565 1565 1564 1564 1564 1563 1563 1562 1562 1561 1561 1560 1559 1559 1558 1558 1557 1556 1555 1555 1554 1554 1553 1552 1551 1551 1550 1549 1549 1548 1547 1546 1545 1544 1544 1543 1542 1542 1541 1540 1539 1539 1538 1537 1536 1536 1535 1534 1534 1533 1532 1532 1531 1530 1530 1529 1529 1528 1527 1527 1526 1525 1525 1524 1524 1523 1523 1522 1522 1522 1521 1521 1520 1520 1520 1520 1520 1520 1520 1520 1519 1519 1519 1519 1519 1519 1518 1518 1518 1518 1517 1517 1517 1516 1516 1516 1515 1515 1514 1514 1514 1514 1513
1565 1565 1564 1564 1563 1563 1562 1562 1561 1561 1560 1559 1559 1558 1557 1557 1556 1555 1554 1554 1553 1552 1552 1551 1550 1549 1549 1548 1547 1547 1546 1545 1544 1543 1543 1542 1541 1540 1540 1539 1538 1538 1537 1536 1535 1534 1534 1533 1532 1532 1531 1530 1530 1529 1529 1528 1528 1527 1526 1525 1525 1524 1524 1523 1522 1522 1521 1521 1521 1520 1520 1519 1519 1519 1519 1519 1519 1519 1519 1519 1519 1519 1519 1518 1518 1518 1517 1517 1517 1517 1516 1516 1515 1515 1515 1514 1514 1514 1513 1513 1513 1512 1512
1565 1564 1564 1563 1563 1562 1562 1561 1561 1560 1559 1559 1558 1557 1556 1556 1555 1554 1553 1553 1552 1551 1551 1550 1549 1548 1547 1546 1546 1545 1544 1544 1543 1542 1541 1540 1540 1539 1539 1538 1537 1536 1536 1535 1534 1533 1533 1532 1531 1530 1530 1529 1529 1528 1528 1527 1526 1526 1525 1524 1524 1523 1523 1522 1521 1521 1520 1520 1520 1519 1519 1519 1518 1518 1518 1518 1519 1518 1518 1518 1518 1518 1518 1517 1517 1517 1516 1516 1516 1515 1515 1514 1514 1514 1514 1513 1513 1513 1512 1512 1511 1511 1510
1564 1564 1563 1563 1562 1562 1561 1560 1560 1559 1559 1558 1557 1556 1555 1555 1554 1553 1552 1552 1551 1550 1550 1549 1548 1547 1546 1545 1544 1544 1543 1543 1542 1541 1540 1539 1539 1538 1537 1537 1536 1535 1535 1534 1533 1532 1531 1531 1530 1529 1529 1528 1528 1527 1526 1526 1525 1525 1524 1524 1523 1522 1522 1521 1521 1520 1519 1519 1519 1519 1518 1518 1518 1518 1518 1518 1518 1518 1517 1517 1517 1517 1516 1516 1516 1515 1515 1515 1514 1514 1514 1513 1513 1513 1512 1512 1511 1511 1511 1510 1510 1509 1509
1564 1563 1563 1562 1562 1561 1560 1560 1559 1558 1558 1557 1556 1555 1555 1554 1553 1552 1552 1551 1550 1549 1549 1548 1547 1546 1545 1544 1543 1543 1542 1541 1541 1540 1539 1538 1537 1537 1536 1535 1535 1534 1534 1533 1532 1531 1530 1529 1529 1528 1528 1527 1526 1526 1525 1525 1524 1524 1523 1523 1522 1522 1521 1520 1520 1519 1519 1519 1518 1518 1518 1518 1518 1517 1517 1517 1517 1517 1516 1516 1516 1515 1515 1515 1514 1514 1514 1514 1513 1513 1512 1512 1512 1511 1511 1510 1510 1509 1509 1509 1508 1508 1507
1563 1562 1562 1561 1561 1560 1560 1559 1558 1558 1557 1556 1555 1555 1554 1553 1553 1552 1551 1550 1549 1548 1548 1547 1546 1545 1544 1543 1542 1542 1541 1540 1539 1539 1538 1537 1536 1535 1535 1534 1534 1533 1532 1531 1531 1530 1529 1529 1528 1527 1526 1526 1525 1524 1524 1524 1523 1523 1522 1522 1521 1521 1520 1520 1519 1519 1519 1518 1518 1518 1517 1517 1517 1517 1517 1516 1516 1516 1515 1515 1515 1514 1514 1514 1513 1513 1513 1512 1512 1511 1511 1510 1510 1510 1509 1509 1509 1508 1508 1507 1507 1506 1506
1562 1562 1561 1561 1560 1559 1559 1558 1558 1557 1556 1555 1555 1554 1554 1553 1552 1551 1550 1549 1549 1548 1547 1546 1545 1545 1544 1543 1542 1541 1540 1539 1538 1537 1536 1535 1535 1534 1533 1533 1532 1531 1531 1530 1529 1529 1528 1527 1526 1526 1525 1524 1524 1523 1523 1523 1522 1522 1521 1521 1520 1520 1519 1519 1519 1518 1518 1517 1517 1517 1517 1517 1516 1516 1515 1515 1515 1514 1514 1514 1514 1513 1513 1512 1512 1512 1511 1511 1510 1510 1509 1509 1509 1508 1508 1507 1507 1506 1506 1506 1505 1505 1504
1561 1561 1560 1560 1559 1559 1558 1558 1557 1556 1555 1555 1554 1554 1553 1552 1551 1550 1550 1549 1548 1547 1546 1545 1544 1544 1543 1542 1541 1540 1539 1539 1537 1536 1535 1534 1533 1533 1532 1531 1530 1530 1529 1528 1528 1527 1527 1526 1525 1524 1524 1523 1523 1522 1522 1521 1521 1521 1520 1520 1519 1519 1519 1518 1518 1517 1517 1517 1516 1516 1516 1515 1515 1515 1514 1514 1514 1513 1513 1513 1512 1512 1511 1511 1511 1510 1510 1509 1509 1508 1508 1508 1507 1507 1506 1506 1505 1505 1504 1504 1504 1503 1503
1561 1560 1560 1559 1559 1558 1558 1557 1556 1555 1555 1554 1554 1553 1552 1551 1551 1550 1549 1548 1547 1546 1545 1544 1544 1543 1542 1541 1541 1540 1539 1538 1536 1535 1534 1533 1532 1531 1530 1529 1529 1528 1528 1527 1526 1525 1525 1524 1524 1523 1522 1522 1521 1521 1521 1520 1520 1519 1519 1519 1518 1518 1518 1517 1517 1516 1516 1516 1515 1515 1515 1514 1514 1514 1513 1513 1512 1512 1511 1511 1511 1510 1510 1509 1509 1509 1508 1508 1507 1507 1506 1506 1505 1505 1505 1504 1504 1504 1503 1503 1502 1502 1501
1560 1559 1559 1559 1558 1558 1557 1556 1555 1555 1554 1554 1553 1552 1551 1551 1550 1549 1548 1547 1546 1545 1544 1544 1543 1542 1541 1540 1540 1539 1538 1537 1536 1534 1533 1531 1530 1529 1529 1528 1527 1526 1526 1525 1524 1524 1523 1523 1522 1521 1521 1521 1520 1520 1519 1519 1519 1518 1518 1517 1517 1517 1516 1516 1516 1515 1515 1515 1514 1514 1514 1513 1513 1512 1512 1511 1511 1510 1510 1509 1509 1509 1508 1508 1507 1507 1506 1506 1505 1505 1504 1504 1504 1504 1503 1503 1502 1502 1501 1501 1501 1500 1499
1559 1559 1558 1558 1557 1557 1556 1555 1555 1554 1554 1553 1552 1551 1551 1550 1549 1549 1548 1547 1546 1545 1544 1543 1542 1541 1540 1539 1538 1538 1537 1536 1535 1533 1532 1530 1528 1527 1526 1525 1524 1524 1523 1523 1522 1522 1521 1520 1520 1519 1519 1519 1519 1519 1518 1518 1517 1517 1516 1516 1516 1515 1515 1515 1514 1514 1514 1514 1513 1513 1512 1512 1511 1511 1510 1510 1509 1509 1508 1508 1507 1507 1506 1506 1505 1505 1504 1504 1504 1503 1503 1503 1502 1502 1501 1501 1501 1500 1500 1499 1499 1499 1498
1558 1558 1557 1557 1556 1556 1555 1554 1554 1553 1553 1552 1551 1551 1550 1549 1549 1548 1547 1546 1545 1544 1543 1542 1541 1540 1539 1538 1537 1537 1536 1535 1534 1533 1531 1529 1528 1525 1523 1522 1521 1521 1521 1520 1520 1519 1519 1519 1518 1518 1518 1517 1517 1517 1517 1516 1516 1515 1515 1514 1514 1514 1514 1514 1513 1513 1513 1512 1512 1512 1511 1510 1510 1509 1509 1508 1508 1507 1507 1506 1505 1505 1504 1504 1504 1503 1503 1502 1502 1502 1501 1501 1500 1500 1500 1499 1499 1499 1498 1498 1497 1497 1496
1558 1557 1557 1556 1555 1555 1554 1554 1553 1552 1552 1551 1550 1550 1549 1548 1548 1547 1546 1545 1544 1543 1542 1541 1540 1539 1539 1538 1536 1536 1535 1535 1534 1532 1530 1529 1528 1526 1524 1521 1519 1518 1517 1517 1518 1518 1517 1517 1516 1516 1516 1515 1515 1515 1515 1514 1514 1514 1513 1513 1513 1513 1512 1512 1512 1511 1511 1511 1510 1510 1509 1509 1509 1508 1507 1507 1506 1505 1505 1504 1504 1503 1503 1502 1502 1501 1501 1500 1500 1500 1499 1499 1499 1498 1498 1498 1497 1497 1496 1496 1495 1495 1494
1557 1556 1556 1555 1554 1554 1553 1553 1552 1551 1550 1550 1549 1549 1548 1547 1547 1546 1545 1544 1543 1542 1541 1540 1539 1539 1538 1537 1536 1535 1535 1534 1533 1532 1531 1529 1527 1526 1525 1522 1519 1517 1515 1514 1513 1514 1515 1515 1514 1514 1514 1514 1514 1514 1513 1513 1512 1512 1512 1511 1511 1511 1511 1510 1510 1510 1509 1509 1509 1509 1508 1508 1507 1506 1506 1505 1504 1504 1504 1503 1502 1502 1501 1500 1500 1499 1499 1499 1498 1498 1498 1497 1497 1496 1496 1495 1495 1495 1494 1494 1493 1493 1492
1556 1555 1555 1554 1554 1553 1552 1551 1551 1550 1549 1549 1548 1547 1547 1546 1546 1545 1544 1544 1543 1542 1540 1539 1539 1537 1536 1536 1535 1534 1534 1533 1533 1532 1531 1529 1528 1525 1524 1523 1522 1519 1517 1515 1512 1511 1513 1514 1514 1513 1513 1512 1512 1511 1511 1511 1510 1510 1510 1509 1509 1509 1509 1509 1508 1508 1507 1507 1507 1507 1506 1506 1505 1505 1504 1504 1503 1502 1502 1501 1501 1500 1499 1499 1498 1498 1497 1497 1496 1496 1496 1495 1495 1494 1494 1494 1493 1493 1492 1492 1491 1491 1490
1555 1554 1554 1553 1553 1552 1551 1550 1550 1549 1548 1548 1547 1546 1545 1545 1544 1544 1543 1542 1541 1540 1539 1539 1538 1536 1535 1534 1534 1533 1532 1532 1532 1531 1531 1530 1529 1527 1524 1523 1522 1521 1519 1518 1516 1513 1511 1512 1512 1510 1509 1510 1510 1509 1509 1509 1508 1508 1508 1508 1507 1507 1507 1506 1506 1506 1505 1505 1505 1504 1504 1504 1503 1503 1502 1502 1501 1500 1500 1499 1499 1498 1498 1497 1496 1496 1495 1495 1494 1494 1494 1493 1493 1492 1492 1491 1491 1490 1490 1489 1489 1489 1488
1554 1554 1553 1552 1551 1551 1550 1549 1549 1548 1547 1546 1546 1545 1544 1544 1543 1543 1542 1541 1540 1539 1539 1538 1537 1536 1534 1533 1532 1531 1531 1531 1531 1531 1530 1529 1529 1528 1526 1524 1522 1520 1519 1518 1517 1515 1512 1511 1509 1507 1506 1507 1507 1507 1506 1506 1506 1506 1505 1505 1505 1505 1505 1504 1504 1504 1503 1503 1503 1502 1502 1501 1501 1501 1500 1499 1499 1499 1498 1498 1497 1496 1496 1495 1494 1494 1493 1493 1492 1492 1491 1491 1490 1490 1489 1489 1489 1488 1488 1487 1487 1486 1486
1553 1553 1552 1551 1550 1550 1549 1548 1548 1547 1546 1545 1544 1544 1543 1543 1542 1541 1541 1540 1539 1539 1537 1537 1536 1535 1534 1533 1531 1530 1529 1529 1529 1529 1529 1529 1528 1528 1527 1526 1524 1522 1520 1518 1516 1514 1513 1512 1509 1504 1503 1505 1506 1505 1504 1504 1504 1504 1503 1503 1503 1503 1502 1502 1502 1501 1501 1501 1500 1500 1500 1499 1499 1498 1498 1497 1497 1496 1496 1495 1495 1494 1494 1493 1492 1492 1491 1491 1490 1489 1489 1488 1488 1488 1487 1487 1487 1486 1486 1485 1485 1484 1484
1552 1552 1551 1550 1549 1549 1548 1547 1547 1546 1545 1544 1544 1543 1542 1542 1541 1540 1539 1539 1538 1537 1536 1535 1534 1534 1533 1532 1531 1529 1529 1528 1528 1528 1528 1527 1527 1526 1526 1526 1525 1524 1524 1521 1517 1514 1512 1512 1511 1507 1501 1501 1503 1504 1503 1502 1502 1502 1501 1501 1501 1500 1500 1499 1499 1499 1499 1498 1498 1498 1498 1497 1497 1496 1495 1495 1494 1494 1494 1493 1493 1492 1492 1491 1490 1490 1489 1489 1488 1487 1487 1486 1486 1485 1485 1485 1484 1484 1484 1483 1483 1482 1482
1551 1551 1550 1549 1549 1548 1547 1546 1546 1545 1544 1543 1543 1542 1541 1540 1540 1539 1538 1538 1537 1536 1535 1534 1534 1533 1532 1531 1530 1529 1528 1527 1526 1526 1526 1525 1525 1525 1525 1524 1524 1523 1522 1521 1519 1517 1514 1512 1511 1509 1504 1498 1498 1500 1502 1501 1500 1499 1499 1499 1499 1498 1498 1497 1497 1496 1496 1496 1495 1495 1495 1495 1494 1494 1493 1493 1492 1492 1492 1491 1491 1490 1490 1489 1488 1488 1487 1486 1486 1485 1484 1484 1484 1483 1483 1483 1482 1482 1481 1481 1481 1480 1480
1550 1550 1549 1548 1548 1547 1546 1545 1545 1544 1543 1542 1542 1541 1540 1539 1539 1538 1537 1536 1536 1535 1534 1533 1532 1531 1530 1529 1529 1528 1526 1525 1525 1524 1524 1523 1523 1523 1523 1522 1522 1521 1520 1519 1519 1518 1516 1514 1511 1509 1507 1501 1495 1493 1497 1499 1499 1498 1497 1497 1497 1496 1496 1495 1494 1494 1494 1493 1493 1493 1492 1492 1492 1492 1491 1491 1490 1490 1489 1489 1489 1489 1488 1487 1486 1485 1485 1484 1484 1483 1483 1482 1481 1481 1480 1480 1480 1479 1479 1479 1479 1478 1478
1549 1549 1548 1547 1547 1546 1545 1544 1544 1543 1542 1541 1541 1540 1539 1538 1538 1537 1536 1535 1534 1534 1533 1532 1531 1530 1529 1529 1528 1527 1525 1524 1524 1523 1523 1521 1520 1520 1521 1520 1520 1519 1519 1518 1517 1516 1515 1514 1512 1510 1509 1505 1500 1493 1490 1493 1495 1496 1495 1495 1494 1494 1493 1493 1492 1492 1491 1491 1490 1490 1490 1489 1489 1489 1489 1489 1488 1488 1487 1487 1487 1486 1486 1485 1484 1484 1483 1482 1481 1481 1480 1480 1479 1479 1479 1478 1478 1478 1477 1477 1476 1476 1475
1549 1548 1547 1546 1546 1545 1544 1544 1543 1542 1541 1540 1540 1539 1538 1537 1536 1535 1534 1534 1533 1532 1531 1530 1530 1529 1528 1528 1527 1525 1524 1523 1522 1522 1522 1521 1519 1518 1518 1518 1517 1517 1516 1515 1515 1514 1513 1512 1511 1510 1509 1506 1503 1498 1492 1489 1490 1493 1493 1493 1493 1492 1491 1490 1490 1489 1489 1489 1488 1488 1487 1487 1486 1486 1486 1486 1485 1485 1485 1484 1484 1484 1484 1483 1482 1481 1481 1480 1479 1479 1478 1478 1477 1477 1477 1476 1476 1475 1475 1474 1474 1474 1473